Time,TemperatureF,DewpointF,PressureIn,WindDirection,WindDirectionDegrees,WindSpeedMPH,WindSpeedGustMPH,Humidity,HourlyPrecipIn,Conditions,Clouds,dailyrainin,SoftwareType,DateUTC
2013-08-05 00:02:00,74.7,70.2,30.02,SE,129,3.0,5.0,86,0.00,,---,0.00,VWS V14.00,2013-08-05 05:02:00,
2013-08-05 00:07:00,74.7,70.2,30.02,SE,129,4.0,5.0,86,0.00,,---,0.00,VWS V14.00,2013-08-05 05:07:00,
2013-08-05 00:12:00,74.9,70.1,30.01,SE,129,3.0,4.0,85,0.00,,---,0.00,VWS V14.00,2013-08-05 05:12:00,
2013-08-05 00:17:00,74.9,70.1,30.02,SE,129,0.0,3.0,85,0.00,,---,0.00,VWS V14.00,2013-08-05 05:17:00,
2013-08-05 00:22:00,74.9,70.1,30.02,SE,129,0.0,0.0,85,0.00,,---,0.00,VWS V14.00,2013-08-05 05:22:00,
2013-08-05 00:27:00,75.1,69.9,30.02,SE,129,5.0,5.0,84,0.00,,---,0.00,VWS V14.00,2013-08-05 05:27:00,
2013-08-05 00:31:00,75.1,69.6,30.02,SE,129,0.0,2.0,83,0.00,,---,0.00,VWS V14.00,2013-08-05 05:31:00,
2013-08-05 00:36:00,75.1,69.2,30.01,SE,129,2.0,5.0,82,0.00,,---,0.00,VWS V14.00,2013-08-05 05:36:00,
2013-08-05 00:42:00,75.1,69.2,30.01,SE,129,2.0,9.0,82,0.00,,---,0.00,VWS V14.00,2013-08-05 05:42:00,
2013-08-05 00:47:00,75.1,69.2,30.01,SE,129,0.0,2.0,82,0.00,,---,0.00,VWS V14.00,2013-08-05 05:47:00,
2013-08-05 00:52:00,75.1,69.2,30.00,SE,129,0.0,1.0,82,0.00,,---,0.00,VWS V14.00,2013-08-05 05:52:00,
2013-08-05 00:57:00,75.1,69.2,30.00,SE,129,3.0,6.0,82,0.00,,---,0.00,VWS V14.00,2013-08-05 05:57:00,
2013-08-05 01:02:00,75.1,68.9,30.00,SE,129,0.0,3.0,81,0.00,,---,0.00,VWS V14.00,2013-08-05 06:02:00,
2013-08-05 01:07:00,74.9,69.0,30.00,SE,129,0.0,2.0,82,0.00,,---,0.00,VWS V14.00,2013-08-05 06:07:00,
2013-08-05 01:12:00,74.7,68.8,30.00,SE,129,0.0,2.0,82,0.00,,---,0.00,VWS V14.00,2013-08-05 06:12:00,
2013-08-05 01:17:00,74.7,68.8,30.00,SE,129,0.0,4.0,82,0.00,,---,0.00,VWS V14.00,2013-08-05 06:17:00,
2013-08-05 01:22:00,74.6,68.8,30.00,SE,129,3.0,3.0,82,0.00,,---,0.00,VWS V14.00,2013-08-05 06:22:00,
2013-08-05 01:27:00,74.6,68.8,30.00,SE,129,3.0,3.0,82,0.00,,---,0.00,VWS V14.00,2013-08-05 06:27:00,
2013-08-05 01:32:00,74.6,68.8,30.00,SE,129,0.0,0.0,82,0.00,,---,0.00,VWS V14.00,2013-08-05 06:32:00,
2013-08-05 01:37:00,74.6,68.8,30.00,SE,129,2.0,3.0,82,0.00,,---,0.00,VWS V14.00,2013-08-05 06:37:00,
2013-08-05 01:42:00,74.6,69.1,30.00,SE,129,0.0,2.0,83,0.00,,---,0.00,VWS V14.00,2013-08-05 06:42:00,
2013-08-05 01:47:00,74.6,69.1,30.00,SE,129,0.0,0.0,83,0.00,,---,0.00,VWS V14.00,2013-08-05 06:47:00,
2013-08-05 01:52:00,74.6,69.1,30.00,SE,129,0.0,4.0,83,0.00,,---,0.00,VWS V14.00,2013-08-05 06:52:00,
2013-08-05 01:57:00,74.6,69.1,30.00,SE,129,0.0,0.0,83,0.00,,---,0.00,VWS V14.00,2013-08-05 06:57:00,
2013-08-05 02:02:00,74.7,69.6,30.00,SE,129,0.0,0.0,84,0.00,,---,0.00,VWS V14.00,2013-08-05 07:02:00,
2013-08-05 02:07:00,74.7,69.6,29.99,SE,129,0.0,1.0,84,0.00,,---,0.00,VWS V14.00,2013-08-05 07:07:00,
2013-08-05 02:12:00,74.7,69.6,29.99,SE,129,0.0,0.0,84,0.00,,---,0.00,VWS V14.00,2013-08-05 07:12:00,
2013-08-05 02:17:00,74.6,69.4,29.99,SE,129,0.0,0.0,84,0.00,,---,0.00,VWS V14.00,2013-08-05 07:17:00,
2013-08-05 02:22:00,74.7,69.9,29.99,SE,129,0.0,0.0,85,0.00,,---,0.00,VWS V14.00,2013-08-05 07:22:00,
2013-08-05 02:27:00,74.7,69.6,29.99,SE,129,0.0,0.0,84,0.00,,---,0.00,VWS V14.00,2013-08-05 07:27:00,
2013-08-05 02:32:00,74.6,69.4,29.98,SE,129,0.0,0.0,84,0.00,,---,0.00,VWS V14.00,2013-08-05 07:32:00,
2013-08-05 02:37:00,74.7,69.9,29.98,SE,129,2.0,3.0,85,0.00,,---,0.00,VWS V14.00,2013-08-05 07:37:00,
2013-08-05 02:42:00,74.7,69.9,29.98,SE,129,5.0,5.0,85,0.00,,---,0.00,VWS V14.00,2013-08-05 07:42:00,
2013-08-05 02:47:00,74.9,69.7,29.98,SE,129,2.0,3.0,84,0.00,,---,0.00,VWS V14.00,2013-08-05 07:47:00,
2013-08-05 02:52:00,75.1,69.9,29.98,SE,129,3.0,4.0,84,0.00,,---,0.00,VWS V14.00,2013-08-05 07:52:00,
2013-08-05 02:57:00,75.3,70.1,29.98,SE,129,0.0,0.0,84,0.00,,---,0.00,VWS V14.00,2013-08-05 07:57:00,
2013-08-05 03:02:00,75.4,70.2,29.98,SSE,156,5.0,9.0,84,0.00,,---,0.00,VWS V14.00,2013-08-05 08:02:00,
2013-08-05 03:07:00,75.4,70.2,29.97,SSE,156,3.0,4.0,84,0.00,,---,0.00,VWS V14.00,2013-08-05 08:07:00,
2013-08-05 03:12:00,75.6,70.1,29.97,SSE,155,2.0,7.0,83,0.00,,---,0.00,VWS V14.00,2013-08-05 08:12:00,
2013-08-05 03:17:00,75.8,70.3,29.97,SSE,154,3.0,5.0,83,0.00,,---,0.00,VWS V14.00,2013-08-05 08:17:00,
2013-08-05 03:22:00,75.8,70.3,29.97,SSE,153,5.0,6.0,83,0.00,,---,0.00,VWS V14.00,2013-08-05 08:22:00,
2013-08-05 03:27:00,76.0,70.5,29.97,SSE,152,0.0,5.0,83,0.00,,---,0.00,VWS V14.00,2013-08-05 08:27:00,
2013-08-05 03:32:00,76.0,70.5,29.98,SSE,152,0.0,5.0,83,0.00,,---,0.00,VWS V14.00,2013-08-05 08:32:00,
2013-08-05 03:37:00,76.0,70.5,29.98,SSE,152,0.0,0.0,83,0.00,,---,0.00,VWS V14.00,2013-08-05 08:37:00,
2013-08-05 03:42:00,76.0,70.5,29.97,SSE,152,0.0,5.0,83,0.00,,---,0.00,VWS V14.00,2013-08-05 08:42:00,
2013-08-05 03:47:00,75.8,70.3,29.97,SSE,152,0.0,3.0,83,0.00,,---,0.00,VWS V14.00,2013-08-05 08:47:00,
2013-08-05 03:52:00,75.8,70.3,29.97,SSE,152,0.0,0.0,83,0.00,,---,0.00,VWS V14.00,2013-08-05 08:52:00,
2013-08-05 03:58:00,75.6,70.1,29.97,SSE,152,0.0,2.0,83,0.00,,---,0.00,VWS V14.00,2013-08-05 08:58:00,
2013-08-05 04:03:00,75.4,70.2,29.97,SSE,152,0.0,0.0,84,0.00,,---,0.00,VWS V14.00,2013-08-05 09:03:00,
2013-08-05 04:08:00,75.4,70.2,29.97,SSE,152,0.0,0.0,84,0.00,,---,0.00,VWS V14.00,2013-08-05 09:08:00,
2013-08-05 04:13:00,75.4,70.2,29.98,SSE,152,0.0,0.0,84,0.00,,---,0.00,VWS V14.00,2013-08-05 09:13:00,
2013-08-05 04:18:00,75.6,71.1,29.98,SSE,152,4.0,4.0,86,0.00,,---,0.00,VWS V14.00,2013-08-05 09:18:00,
2013-08-05 04:23:00,75.3,70.5,29.98,SSE,152,4.0,4.0,85,0.00,,---,0.00,VWS V14.00,2013-08-05 09:23:00,
2013-08-05 04:28:00,75.3,70.8,29.98,SSE,152,2.0,4.0,86,0.00,,---,0.00,VWS V14.00,2013-08-05 09:28:00,
2013-08-05 04:33:00,75.1,70.6,29.97,SSE,152,0.0,0.0,86,0.00,,---,0.00,VWS V14.00,2013-08-05 09:33:00,
2013-08-05 04:38:00,74.9,70.8,29.97,SSE,152,2.0,6.0,87,0.00,,---,0.00,VWS V14.00,2013-08-05 09:38:00,
2013-08-05 04:43:00,74.7,70.6,29.97,SSE,153,2.0,6.0,87,0.00,,---,0.00,VWS V14.00,2013-08-05 09:43:00,
2013-08-05 04:48:00,74.6,70.5,29.97,SSE,153,3.0,3.0,87,0.00,,---,0.00,VWS V14.00,2013-08-05 09:48:00,
2013-08-05 04:53:00,74.2,70.4,29.96,SSE,153,2.0,4.0,88,0.00,,---,0.00,VWS V14.00,2013-08-05 09:53:00,
2013-08-05 04:58:00,74.2,70.8,29.96,SSE,153,4.0,6.0,89,0.00,,---,0.00,VWS V14.00,2013-08-05 09:58:00,
2013-08-05 05:03:00,74.4,70.6,29.96,SSE,153,0.0,1.0,88,0.00,,---,0.00,VWS V14.00,2013-08-05 10:03:00,
2013-08-05 05:08:00,74.6,70.8,29.96,SSE,153,0.0,3.0,88,0.00,,---,0.00,VWS V14.00,2013-08-05 10:08:00,
2013-08-05 05:13:00,74.6,70.8,29.96,SSE,153,2.0,3.0,88,0.00,,---,0.00,VWS V14.00,2013-08-05 10:13:00,
2013-08-05 05:18:00,74.7,70.9,29.96,SSE,153,3.0,3.0,88,0.00,,---,0.00,VWS V14.00,2013-08-05 10:18:00,
2013-08-05 05:23:00,74.7,70.9,29.96,SSE,153,0.0,2.0,88,0.00,,---,0.00,VWS V14.00,2013-08-05 10:23:00,
2013-08-05 05:28:00,74.7,70.9,29.96,SSE,153,0.0,0.0,88,0.00,,---,0.00,VWS V14.00,2013-08-05 10:28:00,
2013-08-05 05:33:00,74.9,71.1,29.97,SSE,153,0.0,0.0,88,0.00,,---,0.00,VWS V14.00,2013-08-05 10:33:00,
2013-08-05 05:38:00,74.9,71.1,29.97,SSE,153,0.0,0.0,88,0.00,,---,0.00,VWS V14.00,2013-08-05 10:38:00,
2013-08-05 05:44:00,74.9,71.1,29.97,SSE,153,0.0,0.0,88,0.00,,---,0.00,VWS V14.00,2013-08-05 10:44:00,
2013-08-05 05:49:00,74.9,71.1,29.97,SSE,153,0.0,0.0,88,0.00,,---,0.00,VWS V14.00,2013-08-05 10:49:00,
2013-08-05 05:54:00,74.9,71.1,29.97,SSE,153,0.0,0.0,88,0.00,,---,0.00,VWS V14.00,2013-08-05 10:54:00,
2013-08-05 05:59:00,74.7,70.9,29.97,SSE,153,0.0,0.0,88,0.00,,---,0.00,VWS V14.00,2013-08-05 10:59:00,
2013-08-05 06:04:00,74.7,70.9,29.97,SSE,153,0.0,0.0,88,0.00,,---,0.00,VWS V14.00,2013-08-05 11:04:00,
2013-08-05 06:09:00,74.6,71.2,29.97,SSE,153,0.0,0.0,89,0.00,,---,0.00,VWS V14.00,2013-08-05 11:09:00,
2013-08-05 06:14:00,74.6,71.2,29.97,SSE,153,0.0,0.0,89,0.00,,---,0.00,VWS V14.00,2013-08-05 11:14:00,
2013-08-05 06:19:00,74.6,71.2,29.97,SSE,153,0.0,0.0,89,0.00,,---,0.00,VWS V14.00,2013-08-05 11:19:00,
2013-08-05 06:25:00,74.6,71.2,29.97,SSE,153,0.0,0.0,89,0.00,,---,0.00,VWS V14.00,2013-08-05 11:25:00,
2013-08-05 06:30:00,74.6,71.2,29.97,SSE,153,0.0,0.0,89,0.00,,---,0.00,VWS V14.00,2013-08-05 11:30:00,
2013-08-05 06:35:00,74.7,71.2,29.97,SSE,153,0.0,0.0,89,0.00,,---,0.00,VWS V14.00,2013-08-05 11:35:00,
2013-08-05 06:41:00,74.7,71.2,29.98,SSE,153,0.0,0.0,89,0.00,,---,0.00,VWS V14.00,2013-08-05 11:41:00,
2013-08-05 06:46:00,74.9,71.1,29.97,SSE,153,4.0,4.0,88,0.00,,---,0.00,VWS V14.00,2013-08-05 11:46:00,
2013-08-05 06:51:00,75.3,71.5,29.97,SSE,153,4.0,5.0,88,0.00,,---,0.00,VWS V14.00,2013-08-05 11:51:00,
2013-08-05 06:56:00,75.4,71.6,29.97,SSE,153,2.0,3.0,88,0.00,,---,0.00,VWS V14.00,2013-08-05 11:56:00,
2013-08-05 07:01:00,75.4,71.6,29.98,SSE,153,0.0,0.0,88,0.00,,---,0.00,VWS V14.00,2013-08-05 12:01:00,
2013-08-05 07:06:00,75.4,71.6,29.98,SSE,153,0.0,0.0,88,0.00,,---,0.00,VWS V14.00,2013-08-05 12:06:00,
2013-08-05 07:11:00,75.4,71.6,29.98,SSE,153,0.0,0.0,88,0.00,,---,0.00,VWS V14.00,2013-08-05 12:11:00,
2013-08-05 07:16:00,75.4,71.6,29.98,SSE,153,0.0,0.0,88,0.00,,---,0.00,VWS V14.00,2013-08-05 12:16:00,
2013-08-05 07:21:00,75.4,71.6,29.99,SSE,153,0.0,0.0,88,0.00,,---,0.00,VWS V14.00,2013-08-05 12:21:00,
2013-08-05 07:26:00,75.4,71.6,29.99,SSE,153,0.0,0.0,88,0.00,,---,0.00,VWS V14.00,2013-08-05 12:26:00,
2013-08-05 07:31:00,75.4,71.9,29.99,SSE,153,0.0,0.0,89,0.00,,---,0.00,VWS V14.00,2013-08-05 12:31:00,
2013-08-05 07:36:00,75.6,71.8,29.99,SSE,153,0.0,0.0,88,0.00,,---,0.00,VWS V14.00,2013-08-05 12:36:00,
2013-08-05 07:41:00,75.8,72.0,29.98,SSE,153,0.0,0.0,88,0.00,,---,0.00,VWS V14.00,2013-08-05 12:41:00,
2013-08-05 07:46:00,76.0,72.2,29.98,SSE,153,0.0,0.0,88,0.00,,---,0.00,VWS V14.00,2013-08-05 12:46:00,
2013-08-05 07:51:00,76.1,72.3,29.98,SSE,153,0.0,0.0,88,0.00,,---,0.00,VWS V14.00,2013-08-05 12:51:00,
2013-08-05 07:56:00,76.1,72.3,29.98,SSE,153,0.0,0.0,88,0.00,,---,0.00,VWS V14.00,2013-08-05 12:56:00,
2013-08-05 08:01:00,76.1,72.3,29.98,SSE,153,0.0,0.0,88,0.00,,---,0.00,VWS V14.00,2013-08-05 13:01:00,
2013-08-05 08:06:00,76.1,72.3,29.98,SSE,153,0.0,0.0,88,0.00,,---,0.00,VWS V14.00,2013-08-05 13:06:00,
2013-08-05 08:11:00,76.0,72.2,29.98,SSE,153,0.0,0.0,88,0.00,,---,0.00,VWS V14.00,2013-08-05 13:11:00,
2013-08-05 08:16:00,76.0,72.2,29.98,SSE,153,0.0,0.0,88,0.00,,---,0.00,VWS V14.00,2013-08-05 13:16:00,
2013-08-05 08:21:00,75.8,72.3,29.97,SSE,153,0.0,0.0,89,0.00,,---,0.00,VWS V14.00,2013-08-05 13:21:00,
2013-08-05 08:26:00,75.6,72.1,29.98,SSE,153,0.0,0.0,89,0.00,,---,0.00,VWS V14.00,2013-08-05 13:26:00,
2013-08-05 08:31:00,75.6,72.1,29.97,SSE,153,0.0,0.0,89,0.00,,---,0.00,VWS V14.00,2013-08-05 13:31:00,
2013-08-05 08:36:00,75.6,72.5,29.97,SSE,153,0.0,0.0,90,0.00,,---,0.00,VWS V14.00,2013-08-05 13:36:00,
2013-08-05 08:41:00,75.6,72.5,29.97,SSE,153,1.0,3.0,90,0.00,,---,0.00,VWS V14.00,2013-08-05 13:41:00,
2013-08-05 08:46:00,75.8,72.7,29.97,SSE,153,0.0,2.0,90,0.00,,---,0.00,VWS V14.00,2013-08-05 13:46:00,
2013-08-05 08:52:00,75.8,72.7,29.97,SSE,153,0.0,0.0,90,0.00,,---,0.00,VWS V14.00,2013-08-05 13:52:00,
2013-08-05 08:56:00,76.0,72.9,29.97,SSE,153,0.0,0.0,90,0.00,,---,0.00,VWS V14.00,2013-08-05 13:56:00,
2013-08-05 09:02:00,76.1,73.0,29.97,SSE,153,0.0,0.0,90,0.00,,---,0.00,VWS V14.00,2013-08-05 14:02:00,
2013-08-05 09:07:00,76.1,73.0,29.97,SSE,153,0.0,0.0,90,0.00,,---,0.00,VWS V14.00,2013-08-05 14:07:00,
2013-08-05 09:12:00,76.3,72.8,29.97,SSE,153,0.0,0.0,89,0.00,,---,0.00,VWS V14.00,2013-08-05 14:12:00,
2013-08-05 09:17:00,76.5,73.0,29.96,SSE,153,0.0,0.0,89,0.00,,---,0.00,VWS V14.00,2013-08-05 14:17:00,
2013-08-05 09:22:00,76.7,73.2,29.96,SSE,153,0.0,0.0,89,0.00,,---,0.00,VWS V14.00,2013-08-05 14:22:00,
2013-08-05 09:27:00,76.7,73.2,29.96,SSE,153,0.0,0.0,89,0.00,,---,0.00,VWS V14.00,2013-08-05 14:27:00,
2013-08-05 09:33:00,76.8,73.3,29.96,SSE,153,0.0,0.0,89,0.00,,---,0.00,VWS V14.00,2013-08-05 14:33:00,
2013-08-05 09:38:00,77.2,73.4,29.96,SSE,153,1.0,2.0,88,0.00,,---,0.00,VWS V14.00,2013-08-05 14:38:00,
2013-08-05 09:43:00,77.6,73.4,29.96,SSE,153,4.0,6.0,87,0.00,,---,0.00,VWS V14.00,2013-08-05 14:43:00,
2013-08-05 09:47:00,77.9,73.7,29.96,SSE,153,6.0,7.0,87,0.00,,---,0.00,VWS V14.00,2013-08-05 14:47:00,
2013-08-05 09:52:00,78.1,73.6,29.96,SSE,153,5.0,6.0,86,0.00,,---,0.00,VWS V14.00,2013-08-05 14:52:00,
2013-08-05 09:58:00,78.5,74.0,29.96,SSE,153,3.0,4.0,86,0.00,,---,0.00,VWS V14.00,2013-08-05 14:58:00,
2013-08-05 10:03:00,78.8,73.9,29.95,SSE,153,5.0,6.0,85,0.00,,---,0.00,VWS V14.00,2013-08-05 15:03:00,
2013-08-05 10:08:00,79.0,74.1,29.96,SSE,153,7.0,7.0,85,0.00,,---,0.00,VWS V14.00,2013-08-05 15:08:00,
2013-08-05 10:13:00,79.2,73.9,29.96,SSE,153,0.0,5.0,84,0.00,,---,0.00,VWS V14.00,2013-08-05 15:13:00,
2013-08-05 10:18:00,79.4,74.2,29.96,SSE,153,1.0,2.0,84,0.00,,---,0.00,VWS V14.00,2013-08-05 15:18:00,
2013-08-05 10:24:00,79.6,74.0,29.96,SSE,153,0.0,3.0,83,0.00,,---,0.00,VWS V14.00,2013-08-05 15:24:00,
2013-08-05 10:29:00,80.1,74.5,29.96,SSE,153,6.0,7.0,83,0.00,,---,0.00,VWS V14.00,2013-08-05 15:29:00,
2013-08-05 10:34:00,80.5,74.5,29.96,SSE,153,0.0,3.0,82,0.00,,---,0.00,VWS V14.00,2013-08-05 15:34:00,
2013-08-05 10:39:00,80.7,74.7,29.95,SSE,153,0.0,5.0,82,0.00,,---,0.00,VWS V14.00,2013-08-05 15:39:00,
2013-08-05 10:44:00,80.9,74.9,29.95,SSE,153,4.0,4.0,82,0.00,,---,0.00,VWS V14.00,2013-08-05 15:44:00,
2013-08-05 10:49:00,81.1,74.3,29.95,SSE,153,0.0,5.0,80,0.00,,---,0.00,VWS V14.00,2013-08-05 15:49:00,
2013-08-05 10:54:00,81.2,74.4,29.95,SSE,153,2.0,5.0,80,0.00,,---,0.00,VWS V14.00,2013-08-05 15:54:00,
2013-08-05 10:59:00,81.4,74.6,29.95,SSE,153,4.0,4.0,80,0.00,,---,0.00,VWS V14.00,2013-08-05 15:59:00,
2013-08-05 11:04:00,81.6,74.5,29.95,SSE,153,0.0,9.0,79,0.00,,---,0.00,VWS V14.00,2013-08-05 16:04:00,
2013-08-05 11:09:00,82.0,75.2,29.95,SSE,153,2.0,3.0,80,0.00,,---,0.00,VWS V14.00,2013-08-05 16:09:00,
2013-08-05 11:14:00,82.4,74.5,29.95,SSE,153,10.0,11.0,77,0.00,,---,0.00,VWS V14.00,2013-08-05 16:14:00,
2013-08-05 11:19:00,82.8,75.2,29.94,SSE,153,0.0,0.0,78,0.00,,---,0.00,VWS V14.00,2013-08-05 16:19:00,
2013-08-05 11:24:00,83.2,74.8,29.94,SSE,153,4.0,4.0,76,0.00,,---,0.00,VWS V14.00,2013-08-05 16:24:00,
2013-08-05 11:29:00,83.4,74.7,29.94,South,173,4.0,4.0,75,0.00,,---,0.00,VWS V14.00,2013-08-05 16:29:00,
2013-08-05 11:35:00,83.6,74.8,29.94,South,173,5.0,5.0,75,0.00,,---,0.00,VWS V14.00,2013-08-05 16:35:00,
2013-08-05 11:40:00,83.8,75.0,29.94,South,174,0.0,1.0,75,0.00,,---,0.00,VWS V14.00,2013-08-05 16:40:00,
2013-08-05 11:45:00,84.1,74.9,29.94,South,174,1.0,2.0,74,0.00,,---,0.00,VWS V14.00,2013-08-05 16:45:00,
2013-08-05 11:50:00,84.3,74.7,29.94,South,174,1.0,5.0,73,0.00,,---,0.00,VWS V14.00,2013-08-05 16:50:00,
2013-08-05 11:55:00,84.3,74.3,29.93,SSE,168,2.0,7.0,72,0.00,,---,0.00,VWS V14.00,2013-08-05 16:55:00,
2013-08-05 12:00:00,84.5,74.5,29.93,South,169,1.0,2.0,72,0.00,,---,0.00,VWS V14.00,2013-08-05 17:00:00,
2013-08-05 12:05:00,84.7,74.7,29.92,South,176,5.0,6.0,72,0.00,,---,0.00,VWS V14.00,2013-08-05 17:05:00,
2013-08-05 12:10:00,84.9,74.9,29.92,South,176,1.0,3.0,72,0.00,,---,0.00,VWS V14.00,2013-08-05 17:10:00,
2013-08-05 12:15:00,85.1,74.6,29.92,South,176,0.0,0.0,71,0.00,,---,0.00,VWS V14.00,2013-08-05 17:15:00,
2013-08-05 12:20:00,85.5,74.6,29.92,South,177,5.0,7.0,70,0.00,,---,0.00,VWS V14.00,2013-08-05 17:20:00,
2013-08-05 12:25:00,85.7,74.4,29.92,South,181,4.0,8.0,69,0.00,,---,0.00,VWS V14.00,2013-08-05 17:25:00,
2013-08-05 12:30:00,85.7,74.4,29.92,South,191,3.0,4.0,69,0.00,,---,0.00,VWS V14.00,2013-08-05 17:30:00,
2013-08-05 12:36:00,85.7,73.9,29.92,South,191,4.0,5.0,68,0.00,,---,0.00,VWS V14.00,2013-08-05 17:36:00,
2013-08-05 12:41:00,85.9,74.1,29.92,South,191,0.0,0.0,68,0.00,,---,0.00,VWS V14.00,2013-08-05 17:41:00,
2013-08-05 12:46:00,86.1,73.9,29.92,South,191,3.0,5.0,67,0.00,,---,0.00,VWS V14.00,2013-08-05 17:46:00,
2013-08-05 12:52:00,86.7,74.0,29.92,South,185,3.0,4.0,66,0.00,,---,0.00,VWS V14.00,2013-08-05 17:52:00,
2013-08-05 12:57:00,87.6,75.3,29.92,South,185,2.0,4.0,67,0.00,,---,0.00,VWS V14.00,2013-08-05 17:57:00,
2013-08-05 13:02:00,87.8,74.6,29.91,South,185,5.0,5.0,65,0.00,,---,0.00,VWS V14.00,2013-08-05 18:02:00,
2013-08-05 13:07:00,87.4,73.7,29.91,South,185,2.0,7.0,64,0.00,,---,0.00,VWS V14.00,2013-08-05 18:07:00,
2013-08-05 13:12:00,87.0,73.4,29.91,South,184,0.0,4.0,64,0.00,,---,0.00,VWS V14.00,2013-08-05 18:12:00,
2013-08-05 13:17:00,87.4,73.7,29.91,South,185,0.0,0.0,64,0.00,,---,0.00,VWS V14.00,2013-08-05 18:17:00,
2013-08-05 13:22:00,88.0,73.8,29.91,South,184,3.0,9.0,63,0.00,,---,0.00,VWS V14.00,2013-08-05 18:22:00,
2013-08-05 13:27:00,88.4,74.2,29.91,SSE,159,7.0,11.0,63,0.00,,---,0.00,VWS V14.00,2013-08-05 18:27:00,
2013-08-05 13:32:00,88.6,73.9,29.90,SSE,161,5.0,6.0,62,0.00,,---,0.00,VWS V14.00,2013-08-05 18:32:00,
2013-08-05 13:37:00,88.6,73.9,29.90,South,179,9.0,11.0,62,0.00,,---,0.00,VWS V14.00,2013-08-05 18:37:00,
2013-08-05 13:42:00,88.6,73.9,29.90,South,178,2.0,9.0,62,0.00,,---,0.00,VWS V14.00,2013-08-05 18:42:00,
2013-08-05 13:47:00,88.6,73.9,29.90,South,169,6.0,9.0,62,0.00,,---,0.00,VWS V14.00,2013-08-05 18:47:00,
2013-08-05 13:52:00,88.8,75.1,29.90,South,170,0.0,10.0,64,0.00,,---,0.00,VWS V14.00,2013-08-05 18:52:00,
2013-08-05 13:57:00,89.3,75.1,29.90,South,170,0.0,3.0,63,0.00,,---,0.00,VWS V14.00,2013-08-05 18:57:00,
2013-08-05 14:02:00,89.7,75.0,29.90,South,171,0.0,6.0,62,0.00,,---,0.00,VWS V14.00,2013-08-05 19:02:00,
2013-08-05 14:07:00,90.1,73.3,29.90,South,186,2.0,4.0,58,0.00,,---,0.00,VWS V14.00,2013-08-05 19:07:00,
2013-08-05 14:12:00,90.3,74.5,29.90,SSE,163,4.0,9.0,60,0.00,,---,0.00,VWS V14.00,2013-08-05 19:12:00,
2013-08-05 14:17:00,89.9,74.2,29.90,SSE,167,2.0,6.0,60,0.00,,---,0.00,VWS V14.00,2013-08-05 19:17:00,
2013-08-05 14:22:00,89.5,73.8,29.90,SSE,168,0.0,1.0,60,0.00,,---,0.00,VWS V14.00,2013-08-05 19:22:00,
2013-08-05 14:28:00,89.5,73.3,29.90,South,175,0.0,0.0,59,0.00,,---,0.00,VWS V14.00,2013-08-05 19:28:00,
2013-08-05 14:33:00,89.5,74.8,29.90,South,176,4.0,4.0,62,0.00,,---,0.00,VWS V14.00,2013-08-05 19:33:00,
2013-08-05 14:38:00,88.8,74.1,29.89,SSE,165,10.0,14.0,62,0.00,,---,0.00,VWS V14.00,2013-08-05 19:38:00,
2013-08-05 14:43:00,88.4,74.2,29.89,SSE,165,0.0,3.0,63,0.00,,---,0.00,VWS V14.00,2013-08-05 19:43:00,
2013-08-05 14:48:00,88.4,74.7,29.89,SSE,163,0.0,2.0,64,0.00,,---,0.00,VWS V14.00,2013-08-05 19:48:00,
2013-08-05 14:53:00,88.2,74.0,29.89,SSE,163,0.0,5.0,63,0.00,,---,0.00,VWS V14.00,2013-08-05 19:53:00,
2013-08-05 14:58:00,88.2,74.5,29.89,SSE,163,6.0,6.0,64,0.00,,---,0.00,VWS V14.00,2013-08-05 19:58:00,
2013-08-05 15:03:00,88.2,74.0,29.89,SSE,163,4.0,7.0,63,0.00,,---,0.00,VWS V14.00,2013-08-05 20:03:00,
2013-08-05 15:08:00,88.0,74.8,29.89,SSE,163,0.0,6.0,65,0.00,,---,0.00,VWS V14.00,2013-08-05 20:08:00,
2013-08-05 15:14:00,88.0,74.8,29.89,SSE,163,4.0,4.0,65,0.00,,---,0.00,VWS V14.00,2013-08-05 20:14:00,
2013-08-05 15:19:00,88.0,74.8,29.88,SSE,163,1.0,6.0,65,0.00,,---,0.00,VWS V14.00,2013-08-05 20:19:00,
2013-08-05 15:24:00,88.0,74.8,29.88,SSE,163,0.0,0.0,65,0.00,,---,0.00,VWS V14.00,2013-08-05 20:24:00,
2013-08-05 15:29:00,87.8,74.6,29.88,SSE,163,6.0,9.0,65,0.00,,---,0.00,VWS V14.00,2013-08-05 20:29:00,
2013-08-05 15:34:00,87.8,74.6,29.88,SSE,163,2.0,3.0,65,0.00,,---,0.00,VWS V14.00,2013-08-05 20:34:00,
2013-08-05 15:39:00,88.0,74.8,29.87,SSE,163,2.0,6.0,65,0.00,,---,0.00,VWS V14.00,2013-08-05 20:39:00,
2013-08-05 15:44:00,88.0,74.8,29.87,SSE,163,2.0,3.0,65,0.00,,---,0.00,VWS V14.00,2013-08-05 20:44:00,
2013-08-05 15:49:00,88.4,75.6,29.87,SSE,163,6.0,6.0,66,0.00,,---,0.00,VWS V14.00,2013-08-05 20:49:00,
2013-08-05 15:54:00,88.6,75.3,29.87,South,171,5.0,7.0,65,0.00,,---,0.00,VWS V14.00,2013-08-05 20:54:00,
2013-08-05 15:59:00,88.8,75.5,29.87,South,171,0.0,2.0,65,0.00,,---,0.00,VWS V14.00,2013-08-05 20:59:00,
2013-08-05 16:04:00,89.3,76.0,29.87,South,172,5.0,6.0,65,0.00,,---,0.00,VWS V14.00,2013-08-05 21:04:00,
2013-08-05 16:09:00,89.0,74.8,29.87,South,174,0.0,6.0,63,0.00,,---,0.00,VWS V14.00,2013-08-05 21:09:00,
2013-08-05 16:14:00,89.3,75.1,29.87,South,174,5.0,6.0,63,0.00,,---,0.00,VWS V14.00,2013-08-05 21:14:00,
2013-08-05 16:19:00,88.8,74.1,29.87,South,176,5.0,7.0,62,0.00,,---,0.00,VWS V14.00,2013-08-05 21:19:00,
2013-08-05 16:25:00,88.6,74.4,29.87,South,178,2.0,3.0,63,0.00,,---,0.00,VWS V14.00,2013-08-05 21:25:00,
2013-08-05 16:30:00,88.6,74.9,29.87,South,178,0.0,1.0,64,0.00,,---,0.00,VWS V14.00,2013-08-05 21:30:00,
2013-08-05 16:35:00,88.6,75.8,29.86,South,178,0.0,5.0,66,0.00,,---,0.00,VWS V14.00,2013-08-05 21:35:00,
2013-08-05 16:40:00,88.8,74.6,29.86,South,178,4.0,6.0,63,0.00,,---,0.00,VWS V14.00,2013-08-05 21:40:00,
2013-08-05 16:45:00,88.8,74.6,29.86,South,178,0.0,3.0,63,0.00,,---,0.00,VWS V14.00,2013-08-05 21:45:00,
2013-08-05 16:51:00,89.3,75.5,29.86,South,178,1.0,1.0,64,0.00,,---,0.00,VWS V14.00,2013-08-05 21:51:00,
2013-08-05 16:56:00,89.5,75.2,29.86,South,178,0.0,2.0,63,0.00,,---,0.00,VWS V14.00,2013-08-05 21:56:00,
2013-08-05 17:01:00,89.5,74.8,29.86,South,178,2.0,9.0,62,0.00,,---,0.00,VWS V14.00,2013-08-05 22:01:00,
2013-08-05 17:06:00,89.5,75.2,29.86,South,180,1.0,5.0,63,0.00,,---,0.00,VWS V14.00,2013-08-05 22:06:00,
2013-08-05 17:12:00,89.3,75.5,29.85,SSE,155,7.0,12.0,64,0.00,,---,0.00,VWS V14.00,2013-08-05 22:12:00,
2013-08-05 17:17:00,89.3,75.1,29.85,SSE,157,4.0,5.0,63,0.00,,---,0.00,VWS V14.00,2013-08-05 22:17:00,
2013-08-05 17:22:00,89.5,75.2,29.85,SSE,157,2.0,4.0,63,0.00,,---,0.00,VWS V14.00,2013-08-05 22:22:00,
2013-08-05 17:27:00,89.7,75.0,29.84,SSE,157,0.0,0.0,62,0.00,,---,0.00,VWS V14.00,2013-08-05 22:27:00,
2013-08-05 17:32:00,89.5,74.8,29.84,South,176,1.0,6.0,62,0.00,,---,0.00,VWS V14.00,2013-08-05 22:32:00,
2013-08-05 17:37:00,89.5,75.7,29.84,South,180,5.0,9.0,64,0.00,,---,0.00,VWS V14.00,2013-08-05 22:37:00,
2013-08-05 17:42:00,89.5,75.2,29.84,South,180,0.0,1.0,63,0.00,,---,0.00,VWS V14.00,2013-08-05 22:42:00,
2013-08-05 17:47:00,89.7,75.9,29.84,South,180,0.0,0.0,64,0.00,,---,0.00,VWS V14.00,2013-08-05 22:47:00,
2013-08-05 17:52:00,89.9,75.6,29.84,South,180,1.0,1.0,63,0.00,,---,0.00,VWS V14.00,2013-08-05 22:52:00,
2013-08-05 17:58:00,89.7,75.4,29.84,South,180,3.0,4.0,63,0.00,,---,0.00,VWS V14.00,2013-08-05 22:58:00,
2013-08-05 18:03:00,89.0,74.8,29.84,South,180,3.0,3.0,63,0.00,,---,0.00,VWS V14.00,2013-08-05 23:03:00,
2013-08-05 18:08:00,88.8,75.5,29.84,South,180,0.0,0.0,65,0.00,,---,0.00,VWS V14.00,2013-08-05 23:08:00,
2013-08-05 18:13:00,88.6,75.3,29.83,South,180,0.0,0.0,65,0.00,,---,0.00,VWS V14.00,2013-08-05 23:13:00,
2013-08-05 18:18:00,88.6,75.3,29.83,South,180,0.0,1.0,65,0.00,,---,0.00,VWS V14.00,2013-08-05 23:18:00,
2013-08-05 18:23:00,88.4,75.6,29.83,South,180,1.0,2.0,66,0.00,,---,0.00,VWS V14.00,2013-08-05 23:23:00,
2013-08-05 18:29:00,88.4,75.6,29.83,South,180,1.0,4.0,66,0.00,,---,0.00,VWS V14.00,2013-08-05 23:29:00,
2013-08-05 18:34:00,88.4,75.6,29.83,South,180,0.0,2.0,66,0.00,,---,0.00,VWS V14.00,2013-08-05 23:34:00,
2013-08-05 18:39:00,88.2,75.9,29.83,South,180,0.0,0.0,67,0.00,,---,0.00,VWS V14.00,2013-08-05 23:39:00,
2013-08-05 18:44:00,87.8,75.9,29.83,South,180,0.0,2.0,68,0.00,,---,0.00,VWS V14.00,2013-08-05 23:44:00,
2013-08-05 18:49:00,87.4,75.6,29.83,South,180,0.0,1.0,68,0.00,,---,0.00,VWS V14.00,2013-08-05 23:49:00,
2013-08-05 18:54:00,87.2,76.2,29.82,South,180,0.0,1.0,70,0.00,,---,0.00,VWS V14.00,2013-08-05 23:54:00,
2013-08-05 18:59:00,87.0,76.5,29.82,South,180,0.0,0.0,71,0.00,,---,0.00,VWS V14.00,2013-08-05 23:59:00,
2013-08-05 19:04:00,86.7,76.6,29.82,South,180,0.0,0.0,72,0.00,,---,0.00,VWS V14.00,2013-08-06 00:04:00,
2013-08-05 19:09:00,86.5,76.4,29.82,South,180,2.0,2.0,72,0.00,,---,0.00,VWS V14.00,2013-08-06 00:09:00,
2013-08-05 19:14:00,86.5,76.8,29.82,South,180,5.0,5.0,73,0.00,,---,0.00,VWS V14.00,2013-08-06 00:14:00,
2013-08-05 19:19:00,86.3,76.6,29.82,South,180,3.0,4.0,73,0.00,,---,0.00,VWS V14.00,2013-08-06 00:19:00,
2013-08-05 19:24:00,86.3,76.6,29.82,South,180,1.0,5.0,73,0.00,,---,0.00,VWS V14.00,2013-08-06 00:24:00,
2013-08-05 19:29:00,86.3,77.0,29.82,South,180,1.0,3.0,74,0.00,,---,0.00,VWS V14.00,2013-08-06 00:29:00,
2013-08-05 19:34:00,86.3,76.6,29.82,South,180,0.0,0.0,73,0.00,,---,0.00,VWS V14.00,2013-08-06 00:34:00,
2013-08-05 19:39:00,86.1,76.8,29.83,South,180,0.0,0.0,74,0.00,,---,0.00,VWS V14.00,2013-08-06 00:39:00,
2013-08-05 19:44:00,85.9,76.7,29.83,South,180,0.0,1.0,74,0.00,,---,0.00,VWS V14.00,2013-08-06 00:44:00,
2013-08-05 19:49:00,85.7,76.9,29.83,South,180,0.0,0.0,75,0.00,,---,0.00,VWS V14.00,2013-08-06 00:49:00,
2013-08-05 19:54:00,85.7,76.9,29.83,South,180,0.0,0.0,75,0.00,,---,0.00,VWS V14.00,2013-08-06 00:54:00,
2013-08-05 19:59:00,85.5,76.7,29.83,South,180,0.0,0.0,75,0.00,,---,0.00,VWS V14.00,2013-08-06 00:59:00,
2013-08-05 20:04:00,85.3,76.5,29.84,South,180,0.0,0.0,75,0.00,,---,0.00,VWS V14.00,2013-08-06 01:04:00,
2013-08-05 20:09:00,85.1,77.1,29.84,South,180,0.0,0.0,77,0.00,,---,0.00,VWS V14.00,2013-08-06 01:09:00,
2013-08-05 20:14:00,84.7,77.1,29.84,South,180,0.0,0.0,78,0.00,,---,0.00,VWS V14.00,2013-08-06 01:14:00,
2013-08-05 20:19:00,84.5,77.3,29.84,South,180,0.0,0.0,79,0.00,,---,0.00,VWS V14.00,2013-08-06 01:19:00,
2013-08-05 20:24:00,84.1,76.9,29.84,South,180,0.0,0.0,79,0.00,,---,0.00,VWS V14.00,2013-08-06 01:24:00,
2013-08-05 20:29:00,84.0,77.2,29.84,South,180,0.0,0.0,80,0.00,,---,0.00,VWS V14.00,2013-08-06 01:29:00,
2013-08-05 20:34:00,84.0,77.5,29.84,South,180,0.0,0.0,81,0.00,,---,0.00,VWS V14.00,2013-08-06 01:34:00,
2013-08-05 20:39:00,83.8,77.3,29.84,South,180,0.0,0.0,81,0.00,,---,0.00,VWS V14.00,2013-08-06 01:39:00,
2013-08-05 20:44:00,83.6,77.2,29.84,South,180,0.0,0.0,81,0.00,,---,0.00,VWS V14.00,2013-08-06 01:44:00,
2013-08-05 20:49:00,83.4,77.0,29.85,South,180,0.0,0.0,81,0.00,,---,0.00,VWS V14.00,2013-08-06 01:49:00,
2013-08-05 20:54:00,83.2,76.8,29.85,South,180,0.0,0.0,81,0.00,,---,0.00,VWS V14.00,2013-08-06 01:54:00,
2013-08-05 20:59:00,83.0,76.6,29.84,South,180,0.0,0.0,81,0.00,,---,0.00,VWS V14.00,2013-08-06 01:59:00,
2013-08-05 21:04:00,82.8,76.8,29.84,South,180,0.0,0.0,82,0.00,,---,0.00,VWS V14.00,2013-08-06 02:04:00,
2013-08-05 21:10:00,82.8,76.8,29.85,South,180,0.0,0.0,82,0.00,,---,0.00,VWS V14.00,2013-08-06 02:10:00,
2013-08-05 21:15:00,82.8,76.8,29.85,South,180,0.0,0.0,82,0.00,,---,0.00,VWS V14.00,2013-08-06 02:15:00,
2013-08-05 21:20:00,82.4,76.4,29.84,South,180,0.0,0.0,82,0.00,,---,0.00,VWS V14.00,2013-08-06 02:20:00,
2013-08-05 21:25:00,82.2,76.5,29.85,South,180,0.0,0.0,83,0.00,,---,0.00,VWS V14.00,2013-08-06 02:25:00,
2013-08-05 21:30:00,82.0,76.3,29.85,South,180,0.0,0.0,83,0.00,,---,0.00,VWS V14.00,2013-08-06 02:30:00,
2013-08-05 21:35:00,81.8,76.5,29.85,South,180,0.0,0.0,84,0.00,,---,0.00,VWS V14.00,2013-08-06 02:35:00,
2013-08-05 21:40:00,81.6,76.3,29.85,South,180,0.0,0.0,84,0.00,,---,0.00,VWS V14.00,2013-08-06 02:40:00,
2013-08-05 21:45:00,81.4,76.5,29.85,South,180,0.0,0.0,85,0.00,,---,0.00,VWS V14.00,2013-08-06 02:45:00,
2013-08-05 21:50:00,81.2,76.3,29.85,South,180,0.0,0.0,85,0.00,,---,0.00,VWS V14.00,2013-08-06 02:50:00,
2013-08-05 21:55:00,81.1,76.2,29.85,South,180,0.0,0.0,85,0.00,,---,0.00,VWS V14.00,2013-08-06 02:55:00,
2013-08-05 22:00:00,80.9,76.0,29.85,South,180,0.0,0.0,85,0.00,,---,0.00,VWS V14.00,2013-08-06 03:00:00,
2013-08-05 22:05:00,80.9,76.3,29.84,South,180,0.0,0.0,86,0.00,,---,0.00,VWS V14.00,2013-08-06 03:05:00,
2013-08-05 22:10:00,80.7,76.1,29.84,South,180,0.0,0.0,86,0.00,,---,0.00,VWS V14.00,2013-08-06 03:10:00,
2013-08-05 22:15:00,80.7,76.1,29.84,South,180,0.0,0.0,86,0.00,,---,0.00,VWS V14.00,2013-08-06 03:15:00,
2013-08-05 22:20:00,81.1,76.5,29.84,South,180,0.0,0.0,86,0.00,,---,0.00,VWS V14.00,2013-08-06 03:20:00,
2013-08-05 22:25:00,81.1,76.5,29.84,South,180,0.0,0.0,86,0.00,,---,0.00,VWS V14.00,2013-08-06 03:25:00,
2013-08-05 22:31:00,80.9,76.3,29.85,South,180,0.0,0.0,86,0.00,,---,0.00,VWS V14.00,2013-08-06 03:31:00,
2013-08-05 22:36:00,80.7,76.1,29.85,South,180,0.0,0.0,86,0.00,,---,0.00,VWS V14.00,2013-08-06 03:36:00,
2013-08-05 22:41:00,80.5,75.9,29.85,South,180,0.0,0.0,86,0.00,,---,0.00,VWS V14.00,2013-08-06 03:41:00,
2013-08-05 22:46:00,80.3,76.1,29.85,South,180,0.0,0.0,87,0.00,,---,0.00,VWS V14.00,2013-08-06 03:46:00,
2013-08-05 22:51:00,80.5,76.3,29.84,South,180,0.0,0.0,87,0.00,,---,0.00,VWS V14.00,2013-08-06 03:51:00,
2013-08-05 22:56:00,80.5,75.9,29.84,South,180,0.0,0.0,86,0.00,,---,0.00,VWS V14.00,2013-08-06 03:56:00,
2013-08-05 23:01:00,80.3,75.7,29.84,South,180,0.0,0.0,86,0.00,,---,0.00,VWS V14.00,2013-08-06 04:01:00,
2013-08-05 23:06:00,80.3,75.7,29.83,South,180,0.0,0.0,86,0.00,,---,0.00,VWS V14.00,2013-08-06 04:06:00,
2013-08-05 23:11:00,80.3,75.7,29.83,South,180,0.0,0.0,86,0.00,,---,0.00,VWS V14.00,2013-08-06 04:11:00,
2013-08-05 23:16:00,80.5,75.9,29.83,South,180,0.0,0.0,86,0.00,,---,0.00,VWS V14.00,2013-08-06 04:16:00,
2013-08-05 23:21:00,81.1,76.2,29.83,South,180,3.0,4.0,85,0.00,,---,0.00,VWS V14.00,2013-08-06 04:21:00,
2013-08-05 23:26:00,81.6,76.3,29.83,South,180,5.0,7.0,84,0.00,,---,0.00,VWS V14.00,2013-08-06 04:26:00,
2013-08-05 23:31:00,81.8,76.1,29.83,South,169,7.0,7.0,83,0.00,,---,0.00,VWS V14.00,2013-08-06 04:31:00,
2013-08-05 23:36:00,81.8,75.8,29.82,SSE,163,0.0,3.0,82,0.00,,---,0.00,VWS V14.00,2013-08-06 04:36:00,
2013-08-05 23:41:00,81.8,76.1,29.83,SSE,163,4.0,6.0,83,0.00,,---,0.00,VWS V14.00,2013-08-06 04:41:00,
2013-08-05 23:46:00,81.8,76.1,29.83,SSE,163,3.0,3.0,83,0.00,,---,0.00,VWS V14.00,2013-08-06 04:46:00,
2013-08-05 23:51:00,81.8,75.8,29.84,SSE,163,5.0,7.0,82,0.00,,---,0.00,VWS V14.00,2013-08-06 04:51:00,
2013-08-05 23:56:00,81.8,75.8,29.84,SSE,163,1.0,3.0,82,0.00,,---,0.00,VWS V14.00,2013-08-06 04:56:00,